Simultaneous Nadir Overpasses (SNOs) Predictions

Prediction of SNOs between AQUA and GOES-15 Satellite Orbit:

Table of predicted SNOs for the next 14.0 days since TLE Epoch: 12/9/2011
Index Date Time (AQUA) AQUA Lat,Lon GOES-15 Lat,Lon Distance(km) Time Diff (sec)
1 12/11/2011 10:13:05 -0.66,-129.62 -0.01,-132.52 330.81 80
2 12/11/2011 22:34:31 -0.34,-134.83 0.03,-133.07 200.13 80
3 12/13/2011 22:22:26 0.59,-131.95 0.02,-134.50 291.14 80
4 12/14/2011 10:43:41 0.50,-137.10 -0.03,-134.70 273.95 80
5 12/16/2011 10:31:37 -0.45,-134.22 -0.03,-136.11 215.34 80
6 12/16/2011 22:53:03 -0.57,-139.43 0.04,-136.64 317.82 80
7 12/18/2011 22:40:59 0.34,-136.55 0.03,-138.06 171.39 80
8 12/19/2011 11:02:16 0.71,-141.72 -0.05,-138.27 392.40 80
9 12/21/2011 10:50:13 -0.21,-138.84 -0.03,-139.67 94.42 80
10 12/21/2011 23:11:40 -0.77,-144.05 0.04,-140.17 441.32 80




NCC Satellite Simultaneous Nadir Overpasses (SNOs) Prediction Service
